Regional Weather Roundup
Issued by NWS

Home | Current Version | Previous Version | Graphics & Text | Print | Product List | Glossary On
Versions: 1 2 3 4 5 6 7 8 9 10 11 12 13 14 15 16 17 18 19 20 21 22 23 24 25 26 27 28 29 30 31 32 33 34 35 36 37 38 39 40 41 42 43 44 45 46 47 48 49 50
347
ASUS44 KMEG 092100
RWRTN
TENNESSEE HOURLY STATE WEATHER ROUNDUP
NATIONAL WEATHER SERVICE MEMPHIS TN
300 PM CST FRI DEC 09 2016

TNZ002-004-019-021-049-052-054-088>092-092200-
WEST TENNESSEE

CITY           SKY/WX    TMP DP  RH WIND       PRES   REMARKS
MEMPHIS INTL   MOSUNNY   36  18  48 NW7       30.57F WCI  30
NWS MEMPHIS      N/A     36 N/A N/A MISG        N/A
JACKSON        SUNNY     35  19  52 NW6       30.57F WCI  30
DYERSBURG      SUNNY     34  16  47 NW6       30.59F WCI  29
UNION CITY     SUNNY     30  16  55 CALM      30.58S
PARIS          SUNNY     30  16  55 CALM      30.57S
$$

TNZ008-025-027-028-033-062-065-066-092200-
NORTH MIDDLE TENNESSEE

CITY           SKY/WX    TMP DP  RH WIND       PRES   REMARKS
NASHVILLE      SUNNY     37  14  38 VRB6      30.55S WCI  32
CLARKSVILLE    SUNNY     33  15  47 NW9       30.57R WCI  25
SMYRNA         SUNNY     35  17  47 N8        30.55F WCI  29
CROSSVILLE     SUNNY     30  14  51 NW9       30.45R WCI  22
$$

TNZ061-075-076-078-094-096-097-092200-
SOUTH MIDDLE TENNESSEE

CITY           SKY/WX    TMP DP  RH WIND       PRES   REMARKS
TULLAHOMA      SUNNY     34  12  40 VRB7      30.50R WCI  28
WINCHESTER     SUNNY     34  18  51 N6        30.50S WCI  29
SHELBYVILLE    SUNNY     37  18  44 VRB3      30.53R
$$

TNZ017-018-042-046-047-092200-
NORTHEAST TENNESSEE

CITY           SKY/WX    TMP DP  RH WIND       PRES   REMARKS
TRI CITIES     MOSUNNY   32  14  47 W7        30.44R WCI  26
$$

TNZ012-013-036-069-073-074-092200-
CENTRAL EAST TENNESSEE

CITY           SKY/WX    TMP DP  RH WIND       PRES   REMARKS
KNOXVILLE      SUNNY     35  14  42 NE5       30.48S WCI  31
OAK RIDGE      SUNNY     36  14  40 E5        30.49F WCI  32
GATLINBURG     SUNNY     32  12  43 N3        30.48R
$$

TNZ083-085-099-092200-
SOUTHEAST TENNESSEE

CITY           SKY/WX    TMP DP  RH WIND       PRES   REMARKS
CHATTANOOGA    MOSUNNY   40  15  36 NE6       30.49R
$$

SKY/WX REPORTED AS FAIR MEANS FEW OR NO CLOUDS BELOW
12 THOUSAND FEET.





USA.gov is the U.S. government's official web portal to all federal, state and local government web resources and services.